[[{"header":{"parameterUnit":"m.s-1","parameterCategory":2,"la1":30.2991,"la2":30.254,"lo1":-89.0895,"lo2":-89.0444,"dy":0.0017,"dx":0.0017,"nx":28,"ny":28,"refTime":"2024-05-08T09:00:00:Z","depth":"0","parameterNumber":2,"parameterNumberName":"U-component_of_CURRENTS"},"data":[0,0,0,0,0,0,0,0,0,0,0,0,0,0,0,0,0,0,0,0,0,0,0,0,0,0,0,0,0,0,0,0,0,0,0,0,0,0,0,0,0,0,0,0,0,0,0,0,0,0,0,0,0,0,0,0,0,0,0.2131,0.2132,0,0.2167,0.2168,0.2168,0.2181,0.2182,0.2182,0.2182,0.2174,0.2174,0.2173,0,0,0,0,0,0,0,0,0,0,0,0,0,0.2046,0.2048,0.2131,0.2132,0.2133,0.2167,0.2168,0.2168,0.2181,0.2182,0.2182,0.2182,0.2174,0.2174,0.2173,0,0,0,0,0,0,0,0,0,0,0,0,0,0.208,0.2048,0.2131,0.2146,0.2148,0.2167,0.2168,0.2168,0.2181,0.2182,0.2182,0.2182,0.2174,0.2174,0.2173,0.2164,0,0,0.2171,0.2171,0,0,0,0,0,0,0,0,0.2078,0.2083,0.2143,0.2145,0.2147,0.2173,0.2135,0.2165,0.2181,0.2165,0.2182,0.2182,0.2171,0.2171,0.2173,0.2164,0.2163,0.2171,0.2171,0.2171,0.217,0,0,0,0,0,0,0,0.2076,0.2081,0.2142,0.2144,0.2146,0.2142,0.2147,0.2141,0.2163,0.2167,0.2169,0.2178,0.2172,0.2174,0.2173,0.2163,0.2171,0.2171,0.217,0.217,0.216,0.216,0,0,0,0,0,0,0.2079,0.2079,0.2141,0.2144,0.2116,0.2143,0.2149,0.2162,0.2164,0.2166,0.2177,0.2178,0.2175,0.2174,0.2173,0.2183,0.2171,0.217,0.217,0.216,0.216,0.216,0,0,0,0,0,0,0.2077,0.2084,0.214,0.2114,0.2121,0.2145,0.2159,0.2163,0.2172,0.2173,0.2174,0.2185,0.2175,0.2174,0.2176,0.2182,0.217,0.2169,0.216,0.216,0.216,0.2189,0,0,0,0,0,0,0.2074,0.2083,0.2092,0.2115,0.2123,0.2163,0.216,0.2163,0.2178,0.218,0.218,0.2179,0.2175,0.2176,0.2175,0.2181,0.2169,0.216,0.216,0.216,0.2188,0.2191,0.2192,0,0,0,0,0,0.2071,0.2086,0.2093,0.21,0.2136,0.2164,0.2168,0.2183,0.2178,0.219,0.2185,0.2179,0.2176,0.2176,0.2174,0.218,0.216,0.216,0.216,0.2187,0.219,0.2192,0,0,0,0,0,0,0.2052,0.209,0.2097,0.2122,0.2146,0.2168,0.2179,0.2185,0.219,0.2186,0.2182,0.2181,0.2186,0.2176,0.2176,0.2177,0.2166,0.2166,0.2187,0.219,0.2192,0.2206,0.2168,0,0,0,0,0,0.2053,0.2075,0.2107,0.2126,0.2139,0.2157,0.2169,0.2179,0.2189,0.2192,0.219,0.2184,0.2183,0.2182,0.218,0.2178,0.2204,0.218,0.2182,0.2184,0.2193,0.2236,0.2244,0.2161,0.2161,0.2161,0,0,0.2048,0.2074,0.2084,0.2124,0.214,0.2155,0.2165,0.2186,0.2193,0.2188,0.219,0.2192,0.2185,0.2189,0.2189,0.2183,0.2223,0.2184,0.2186,0.2194,0.2237,0.2246,0.2253,0.2161,0.2161,0.2161,0,0,0.2048,0.2076,0.209,0.2112,0.2144,0.2157,0.2165,0.2188,0.2196,0.2201,0.22,0.2211,0.2199,0.2207,0.2205,0.2215,0.2234,0.2207,0.2227,0.2269,0.2277,0.2284,0.2344,0.2356,0.2206,0.2206,0.2206,0,0.2039,0.2063,0.2098,0.2116,0.213,0.2157,0.2167,0.2181,0.2198,0.221,0.2204,0.2215,0.221,0.2227,0.2231,0.2222,0.2255,0.222,0.2274,0.2282,0.2289,0.2348,0.2361,0.2207,0.2207,0.2207,0.2207,0,0.2046,0.2064,0.2076,0.2105,0.2127,0.2143,0.217,0.2187,0.2195,0.2209,0.2233,0.2237,0.225,0.2246,0.224,0.2282,0.2295,0.2276,0.2273,0.2299,0.2359,0.2372,0.2209,0.2209,0.2208,0.2208,0,0,0.202,0.207,0.2071,0.2082,0.2122,0.2139,0.2161,0.2193,0.2215,0.223,0.2261,0.2265,0.2285,0.2285,0.2288,0.2319,0.2399,0.232,0.2322,0.2389,0.2515,0.2551,0.2569,0.2393,0.2395,0.2397,0.2545,0,0.201,0.2034,0.2064,0.2078,0.2091,0.213,0.2153,0.2187,0.2217,0.2256,0.2279,0.2308,0.2294,0.2313,0.2343,0.2389,0.2432,0.2362,0.2471,0.2475,0.2512,0.2585,0.2574,0.2707,0.2557,0.256,0.2561,0,0.1996,0.2018,0.2029,0.2072,0.2083,0.2094,0.2148,0.2172,0.2238,0.2272,0.2315,0.2345,0.2406,0.2382,0.2488,0.2447,0.2487,0.2516,0.2522,0.2555,0.2536,0.2652,0.2736,0.2735,0.2581,0.258,0.2578,0,0.195,0.1989,0.1996,0.2008,0.2061,0.2076,0.2105,0.2169,0.2214,0.2289,0.2346,0.2406,0.2466,0.2513,0.2589,0.2547,0.2712,0.2657,0.2729,0.2732,0.2745,0.2746,0.2848,0.2732,0.2732,0.2731,0.2731,0,0.192,0.1922,0.1973,0.1973,0.1995,0.2042,0.2081,0.2128,0.2219,0.2282,0.2351,0.2431,0.2504,0.2605,0.2634,0.2753,0.2757,0.2765,0.2781,0.2755,0.2756,0.277,0.2743,0.2737,0.2736,0.2734,0.2733,0,0.1856,0.1889,0.1899,0.1951,0.1969,0.1979,0.2068,0.2106,0.2204,0.2296,0.2333,0.2489,0.2632,0.2715,0.2828,0.2839,0.2876,0.2951,0.2932,0.2943,0.2976,0.2951,0.2878,0.2792,0.3053,0.3055,0.3056,0,0.1822,0.1821,0.1869,0.188,0.1898,0.1936,0.1969,0.2075,0.2133,0.2328,0.2375,0.2566,0.2694,0.2909,0.2987,0.3093,0.2972,0.3116,0.3019,0.3014,0.2998,0.279,0.2705,0.3055,0.3057,0.3058,0.3059,0,0.1756,0.1774,0.1787,0.1818,0.1842,0.1885,0.1944,0.1996,0.2131,0.2246,0.2409,0.2538,0.28,0.2948,0.3123,0.3161,0.301,0.3143,0.3142,0.3027,0.2804,0.2717,0.2931,0.307,0.3069,0.3068,0.3067,0.3067,0.1702,0.1701,0.1727,0.1751,0.178,0.1815,0.1835,0.1932,0.2036,0.2202,0.2357,0.2556,0.2866,0.3132,0.3147,0.3249,0.3101,0.3212,0.3192,0.2988,0.2864,0.3117,0.3261,0.3261,0.3261,0.3261,0.3261,0,0.164,0.165,0.1666,0.1688,0.1695,0.1744,0.1808,0.1836,0.1927,0.2152,0.2305,0.2661,0.2901,0.3114,0.3363,0.3332,0.3095,0.3275,0.2998,0.2917,0.3193,0.3157,0.3281,0.3281,0.3281,0.3281,0.3281,0.3281,0.1605,0.1599,0.1615,0.16,0.1617,0.1618,0.1641,0.1704,0.1851,0.2086,0.2321,0.2524,0.2962,0.3353,0.347,0.3394,0.3146,0.3044,0.2952,0.322,0.3211,0.3202,0.3164,0.3288,0.3288,0.2558,0.2554,0.255]},{"header":{"parameterUnit":"m.s-1","parameterCategory":2,"la1":30.2991,"la2":30.254,"lo1":-89.0895,"lo2":-89.0444,"dy":0.0017,"dx":0.0017,"nx":28,"ny":28,"refTime":"2024-05-08T09:00:00:Z","depth":"0","parameterNumber":3,"parameterNumberName":"V-component_of_CURRENTS"},"data":[0,0,0,0,0,0,0,0,0,0,0,0,0,0,0,0,0,0,0,0,0,0,0,0,0,0,0,0,0,0,0,0,0,0,0,0,0,0,0,0,0,0,0,0,0,0,0,0,0,0,0,0,0,0,0,0,0,0,0.0026,0.0025,0,-0.0058,-0.0059,-0.006,-0.0118,-0.0118,-0.0118,-0.0119,-0.0253,-0.0257,-0.026,0,0,0,0,0,0,0,0,0,0,0,0,0,0.0095,0.0094,0.0026,0.0025,0.0024,-0.0058,-0.0059,-0.0061,-0.0118,-0.0118,-0.0119,-0.0119,-0.0252,-0.0256,-0.026,0,0,0,0,0,0,0,0,0,0,0,0,0,0.0043,0.0094,0.0026,-0.0014,-0.0019,-0.0058,-0.0059,-0.0061,-0.0117,-0.0118,-0.0119,-0.0119,-0.0251,-0.0256,-0.0261,-0.0278,0,0,-0.0275,-0.0277,0,0,0,0,0,0,0,0,0.0046,0.0041,-0.0007,-0.0012,-0.0017,-0.0078,-0.0085,-0.0136,-0.0117,-0.008,-0.0119,-0.012,-0.0199,-0.0208,-0.0222,-0.0285,-0.029,-0.0276,-0.0279,-0.0281,-0.0282,0,0,0,0,0,0,0,0.005,0.0044,-0.0008,-0.0008,-0.0014,-0.0043,-0.0051,-0.0095,-0.0136,-0.0083,-0.0088,-0.0097,-0.0202,-0.0217,-0.0226,-0.0292,-0.0276,-0.028,-0.0283,-0.0285,-0.0384,-0.0384,0,0,0,0,0,0,0.0063,0.0047,-0.0005,-0.001,0.0014,-0.0043,-0.0052,-0.0058,-0.0135,-0.0147,-0.0096,-0.0099,-0.0209,-0.022,-0.0231,-0.0258,-0.0281,-0.0285,-0.0288,-0.0384,-0.0384,-0.0384,0,0,0,0,0,0,0.0065,0.006,-0.0001,0.0017,0.0007,-0.0044,-0.005,-0.0059,-0.0076,-0.0144,-0.0157,-0.0104,-0.021,-0.0224,-0.0266,-0.0264,-0.0287,-0.0292,-0.0385,-0.0384,-0.0384,-0.0312,0,0,0,0,0,0,0.0068,0.0061,0.0063,0.0018,0.0006,-0.0019,-0.005,-0.006,-0.0081,-0.0086,-0.0155,-0.0168,-0.0211,-0.0258,-0.027,-0.0271,-0.0296,-0.0385,-0.0384,-0.0384,-0.0315,-0.0309,-0.0305,0,0,0,0,0,0.0071,0.0076,0.0063,0.0057,0.001,-0.0019,-0.0027,-0.0065,-0.008,-0.0084,-0.0129,-0.0166,-0.0264,-0.0262,-0.0276,-0.0278,-0.0385,-0.0384,-0.0384,-0.0317,-0.0311,-0.0305,0,0,0,0,0,0,0.0106,0.007,0.0054,0.0049,0.002,-0.0028,-0.0034,-0.006,-0.0098,-0.0102,-0.0165,-0.0181,-0.0218,-0.0255,-0.0251,-0.0305,-0.033,-0.0332,-0.0274,-0.0269,-0.0264,-0.0241,-0.03,0,0,0,0,0,0.0116,0.0112,0.0071,0.0068,0.0057,0.0014,-0.0002,-0.0027,-0.0067,-0.0084,-0.0131,-0.0181,-0.0226,-0.0252,-0.0297,-0.0325,-0.0352,-0.0335,-0.033,-0.0326,-0.0317,-0.0356,-0.0354,-0.0382,-0.0382,-0.0382,0,0,0.0128,0.0109,0.0106,0.0076,0.0052,0.004,0.0003,-0.0015,-0.0026,-0.0093,-0.012,-0.0168,-0.023,-0.0263,-0.0283,-0.0294,-0.0329,-0.0325,-0.032,-0.0314,-0.0355,-0.0353,-0.035,-0.0381,-0.0381,-0.0381,0,0,0.0156,0.0137,0.0143,0.0123,0.0093,0.0065,0.0064,0.002,-0.0001,-0.0031,-0.0082,-0.0124,-0.0191,-0.0233,-0.0265,-0.0258,-0.0302,-0.0274,-0.0231,-0.0269,-0.0267,-0.0265,-0.0282,-0.0283,-0.027,-0.0269,-0.0269,0,0.0174,0.0173,0.0141,0.0141,0.0129,0.0081,0.0084,0.0056,0.0004,-0.0008,-0.003,-0.0122,-0.0176,-0.0219,-0.0216,-0.0247,-0.0267,-0.0248,-0.0261,-0.026,-0.026,-0.0278,-0.028,-0.0266,-0.0266,-0.0267,-0.0267,0,0.0204,0.0201,0.0204,0.0188,0.0173,0.0168,0.0127,0.011,0.008,0.0049,0.0006,-0.0063,-0.0117,-0.0142,-0.0179,-0.0204,-0.0217,-0.025,-0.0272,-0.0252,-0.0273,-0.0276,-0.0261,-0.0262,-0.0263,-0.0264,0,0,0.0249,0.023,0.023,0.0233,0.0198,0.0191,0.0177,0.015,0.0147,0.0093,0.0083,0.0002,-0.0031,-0.0068,-0.0123,-0.0156,-0.0171,-0.0192,-0.0196,-0.02,-0.0236,-0.0241,-0.0245,-0.0205,-0.0205,-0.0206,-0.0246,0,0.0283,0.0297,0.0275,0.0287,0.0291,0.0249,0.024,0.021,0.018,0.0159,0.0089,0.0055,-0.0005,-0.0025,-0.0069,-0.0149,-0.0177,-0.0156,-0.0262,-0.0264,-0.0266,-0.0249,-0.0222,-0.0255,-0.0249,-0.0249,-0.025,0,0.0318,0.0324,0.0342,0.0338,0.0337,0.0333,0.0319,0.0307,0.0263,0.0244,0.0199,0.0144,0.0083,0.0033,-0.0083,-0.0065,-0.0138,-0.0199,-0.0203,-0.0234,-0.0276,-0.0279,-0.0261,-0.0413,-0.0255,-0.0254,-0.0254,0,0.0365,0.0371,0.0389,0.0386,0.0371,0.0374,0.0363,0.0331,0.0341,0.0301,0.0311,0.0216,0.0186,0.0074,-0.005,-0.0067,-0.0168,-0.0214,-0.0285,-0.0286,-0.0297,-0.0299,-0.0433,-0.0288,-0.0287,-0.0287,-0.0287,0,0.0405,0.042,0.0413,0.0422,0.0453,0.0422,0.045,0.0429,0.042,0.0453,0.0361,0.0372,0.0197,0.0116,-0.0015,-0.0147,-0.0145,-0.0268,-0.0298,-0.027,-0.0269,-0.043,-0.0541,-0.0289,-0.0289,-0.0288,-0.0288,0,0.0445,0.0439,0.0465,0.0467,0.0475,0.0494,0.0518,0.0539,0.0525,0.0569,0.0566,0.0492,0.039,0.022,0.0045,-0.0085,-0.0322,-0.0272,-0.0216,-0.0238,-0.0457,-0.0565,-0.074,-0.0849,-0.0362,-0.0363,-0.0363,0,0.0464,0.0482,0.0508,0.0533,0.0535,0.0566,0.0592,0.0591,0.063,0.0655,0.0688,0.0609,0.0584,0.0327,0.0073,-0.0151,-0.0324,-0.0283,-0.0323,-0.0458,-0.0601,-0.0672,-0.0757,-0.0305,-0.0305,-0.0305,-0.0305,0,0.0508,0.0514,0.0537,0.0591,0.0628,0.0681,0.0724,0.0779,0.0799,0.0852,0.0911,0.0897,0.0659,0.0451,0.0128,-0.0052,-0.0412,-0.0287,-0.0451,-0.0584,-0.0648,-0.0769,-0.0281,-0.0304,-0.0304,-0.0304,-0.0304,-0.0304,0.0539,0.0569,0.0602,0.0655,0.0708,0.079,0.086,0.0929,0.1027,0.1142,0.1101,0.1158,0.0827,0.0391,0.0098,-0.038,-0.0423,-0.0508,-0.0629,-0.0688,-0.0797,-0.0294,-0.034,-0.034,-0.034,-0.0341,-0.0341,0,0.0583,0.0615,0.0666,0.0738,0.0814,0.083,0.0948,0.1045,0.1195,0.1318,0.1392,0.1333,0.0877,0.0417,-0.0233,-0.0615,-0.0794,-0.0838,-0.0942,-0.1018,-0.0577,-0.0577,-0.0647,-0.0647,-0.0647,-0.0647,-0.0646,-0.0646,0.0609,0.0665,0.0691,0.0819,0.088,0.1015,0.1099,0.125,0.1384,0.1605,0.172,0.1757,0.1488,0.0176,-0.068,-0.0931,-0.1254,-0.1309,-0.1492,-0.1188,-0.1166,-0.1145,-0.117,-0.1363,-0.1364,-0.1863,-0.1869,-0.1872]}],[{"header":{"parameterUnit":"m.s-1","parameterCategory":2,"la1":30.2991,"la2":30.254,"lo1":-89.0895,"lo2":-89.0444,"dy":0.0017,"dx":0.0017,"nx":28,"ny":28,"refTime":"2024-05-08T09:00:00:Z","depth":"2","parameterNumber":2,"parameterNumberName":"U-component_of_CURRENTS"},"data":[0,0,0,0,0,0,0,0,0,0,0,0,0,0,0,0,0,0,0,0,0,0,0,0,0,0,0,0,0,0,0,0,0,0,0,0,0,0,0,0,0,0,0,0,0,0,0,0,0,0,0,0,0,0,0,0,0,0,0.2141,0.2142,0,0.2179,0.2179,0.2179,0.2195,0.2195,0.2196,0.2196,0.2189,0.2188,0.2188,0,0,0,0,0,0,0,0,0,0,0,0,0,0.2053,0.2054,0.2141,0.2142,0.2142,0.2179,0.2179,0.2179,0.2195,0.2195,0.2196,0.2196,0.2189,0.2188,0.2188,0,0,0,0,0,0,0,0,0,0,0,0,0,0.2088,0.2055,0.2141,0.2157,0.2159,0.2179,0.2179,0.218,0.2195,0.2195,0.2196,0.2196,0.2189,0.2188,0.2188,0.2179,0,0,0.2186,0.2186,0,0,0,0,0,0,0,0,0.2086,0.2091,0.2154,0.2156,0.2158,0.2185,0.2146,0.2178,0.2195,0.2178,0.2196,0.2196,0.2185,0.2185,0.2188,0.2178,0.2178,0.2186,0.2186,0.2186,0.2185,0,0,0,0,0,0,0,0.2084,0.209,0.2153,0.2155,0.2157,0.2153,0.2158,0.2152,0.2176,0.218,0.2182,0.219,0.2186,0.2188,0.2188,0.2178,0.2186,0.2186,0.2185,0.2185,0.2171,0.2171,0,0,0,0,0,0,0.2087,0.2088,0.2152,0.2154,0.2126,0.2154,0.216,0.2174,0.2177,0.218,0.219,0.2191,0.2189,0.2188,0.2187,0.2196,0.2186,0.2185,0.2185,0.2171,0.2171,0.2171,0,0,0,0,0,0,0.2085,0.2092,0.215,0.2124,0.2131,0.2156,0.2171,0.2174,0.2184,0.2187,0.2187,0.2198,0.2189,0.2188,0.2189,0.2195,0.2185,0.2184,0.2171,0.2171,0.2171,0.2201,0,0,0,0,0,0,0.2082,0.2091,0.2101,0.2124,0.2133,0.2173,0.2171,0.2175,0.219,0.2192,0.2193,0.2192,0.2189,0.219,0.2188,0.2194,0.2184,0.2171,0.2171,0.2171,0.22,0.2202,0.2203,0,0,0,0,0,0.2079,0.2094,0.2101,0.2109,0.2146,0.2174,0.2178,0.2193,0.2191,0.2201,0.2197,0.2193,0.2188,0.219,0.2188,0.2194,0.2171,0.2171,0.2171,0.2199,0.2201,0.2203,0,0,0,0,0,0,0.2059,0.2098,0.2106,0.2132,0.2156,0.2178,0.2189,0.2196,0.2201,0.2198,0.2194,0.2194,0.2197,0.2188,0.2189,0.2188,0.2178,0.2177,0.22,0.2202,0.2203,0.2218,0.2183,0,0,0,0,0,0.206,0.2083,0.2115,0.2135,0.2148,0.2167,0.2179,0.2189,0.2199,0.2202,0.2201,0.2195,0.2194,0.2192,0.2189,0.2187,0.2212,0.2188,0.219,0.2192,0.2201,0.2243,0.225,0.217,0.217,0.217,0,0,0.2055,0.2082,0.2093,0.2132,0.2149,0.2162,0.2174,0.2196,0.2201,0.2198,0.22,0.2202,0.2195,0.2198,0.2197,0.2191,0.2229,0.2191,0.2193,0.2202,0.2244,0.2252,0.2259,0.217,0.217,0.217,0,0,0.2055,0.2084,0.2098,0.2119,0.2151,0.2164,0.2172,0.2195,0.2204,0.2208,0.2208,0.2218,0.2206,0.2214,0.2212,0.2219,0.2239,0.221,0.2231,0.2271,0.2279,0.2286,0.2342,0.2354,0.2209,0.2209,0.2209,0,0.2046,0.207,0.2106,0.2122,0.2136,0.2164,0.2173,0.2186,0.2204,0.2215,0.221,0.222,0.2215,0.2232,0.2236,0.2225,0.2257,0.2225,0.2276,0.2284,0.229,0.2346,0.2359,0.2211,0.2211,0.2211,0.221,0,0.2052,0.207,0.2081,0.2109,0.213,0.2145,0.2172,0.2189,0.2198,0.2213,0.2236,0.2239,0.2253,0.2248,0.2243,0.2284,0.2296,0.2278,0.2277,0.2301,0.2358,0.237,0.2213,0.2212,0.2212,0.2212,0,0,0.2028,0.2075,0.2075,0.2086,0.2124,0.2141,0.2162,0.2194,0.2216,0.223,0.2261,0.2265,0.2286,0.2286,0.2289,0.232,0.2398,0.2321,0.2323,0.2389,0.251,0.2537,0.2554,0.2393,0.2395,0.2396,0.2537,0,0.2016,0.2038,0.2067,0.208,0.2091,0.213,0.2152,0.2185,0.2215,0.2254,0.2278,0.2306,0.2294,0.2314,0.2343,0.2388,0.243,0.2362,0.2467,0.2471,0.2502,0.2569,0.2353,0.2462,0.255,0.2552,0.2553,0,0.2001,0.2022,0.2031,0.2073,0.2083,0.2094,0.2147,0.217,0.2236,0.2269,0.2313,0.2342,0.2403,0.2381,0.2483,0.2444,0.2483,0.2511,0.2516,0.2541,0.2522,0.2448,0.2481,0.2575,0.2573,0.2571,0.257,0,0.1956,0.1993,0.1999,0.2009,0.2061,0.2076,0.2105,0.2168,0.2212,0.2287,0.2343,0.2402,0.2461,0.2507,0.2581,0.2541,0.2699,0.2647,0.2709,0.2712,0.2549,0.2534,0.2719,0.2719,0.2719,0.2718,0.2718,0,0.1925,0.1927,0.1977,0.1976,0.1998,0.2044,0.2082,0.2129,0.2218,0.228,0.2348,0.2426,0.2499,0.2596,0.2624,0.2735,0.2743,0.2743,0.2758,0.2554,0.254,0.264,0.2629,0.2724,0.2722,0.2721,0.2721,0,0.1862,0.1893,0.1903,0.1954,0.1972,0.1983,0.207,0.2107,0.2204,0.2294,0.2331,0.2482,0.2619,0.27,0.2809,0.2817,0.2893,0.2921,0.2696,0.2683,0.2863,0.2852,0.3004,0.3007,0.3009,0.301,0.3012,0,0.1827,0.1827,0.1874,0.1885,0.1902,0.1941,0.1973,0.2078,0.2134,0.2325,0.237,0.2554,0.2672,0.2875,0.2917,0.3009,0.2997,0.2854,0.2731,0.2898,0.2897,0.2882,0.2868,0.2526,0.2523,0.2521,0.2519,0,0.1762,0.178,0.1793,0.1823,0.1848,0.1889,0.1949,0.1998,0.2131,0.2241,0.2398,0.2517,0.2737,0.2767,0.2916,0.2914,0.282,0.2817,0.3052,0.2499,0.2461,0.2455,0.2454,0.2499,0.2501,0.2503,0.2504,0.2504,0.1709,0.1708,0.1734,0.1757,0.1787,0.1821,0.184,0.1931,0.2028,0.2165,0.232,0.2444,0.256,0.27,0.2667,0.2647,0.283,0.2689,0.2688,0.2692,0.2624,0.2593,0.2644,0.2646,0.2649,0.2651,0.2652,0,0.1645,0.1658,0.1673,0.1695,0.17,0.1751,0.1814,0.1832,0.1912,0.2069,0.2194,0.2137,0.2234,0.2332,0.2301,0.2358,0.2243,0.2243,0.2058,0.2084,0.2106,0.1998,0.1857,0.1853,0.185,0.1847,0,0,0.161,0.1603,0.1618,0.1603,0.1623,0.1623,0.1646,0.169,0.1787,0.1843,0.1911,0.2129,0.2298,0.2033,0.204,0.1943,0.197,0.1863,0.2517,0.2328,0.2344,0.2406,0.2279,0,0,0,0,0]},{"header":{"parameterUnit":"m.s-1","parameterCategory":2,"la1":30.2991,"la2":30.254,"lo1":-89.0895,"lo2":-89.0444,"dy":0.0017,"dx":0.0017,"nx":28,"ny":28,"refTime":"2024-05-08T09:00:00:Z","depth":"2","parameterNumber":3,"parameterNumberName":"V-component_of_CURRENTS"},"data":[0,0,0,0,0,0,0,0,0,0,0,0,0,0,0,0,0,0,0,0,0,0,0,0,0,0,0,0,0,0,0,0,0,0,0,0,0,0,0,0,0,0,0,0,0,0,0,0,0,0,0,0,0,0,0,0,0,0,-0.0032,-0.0033,0,-0.0115,-0.0116,-0.0117,-0.0172,-0.0173,-0.0173,-0.0174,-0.0309,-0.0312,-0.0315,0,0,0,0,0,0,0,0,0,0,0,0,0,0.0033,0.0032,-0.0032,-0.0033,-0.0034,-0.0115,-0.0116,-0.0117,-0.0172,-0.0173,-0.0173,-0.0174,-0.0308,-0.0312,-0.0316,0,0,0,0,0,0,0,0,0,0,0,0,0,-0.0017,0.0032,-0.0032,-0.0071,-0.0076,-0.0115,-0.0116,-0.0118,-0.0172,-0.0173,-0.0173,-0.0174,-0.0307,-0.0311,-0.0316,-0.0335,0,0,-0.0331,-0.0333,0,0,0,0,0,0,0,0,-0.0014,-0.002,-0.0065,-0.0069,-0.0074,-0.0134,-0.0143,-0.0193,-0.0172,-0.0136,-0.0174,-0.0174,-0.0255,-0.0264,-0.0278,-0.0342,-0.0348,-0.0332,-0.0335,-0.0337,-0.0338,0,0,0,0,0,0,0,-0.0011,-0.0017,-0.0065,-0.0066,-0.0071,-0.0101,-0.0108,-0.0153,-0.0192,-0.0139,-0.0143,-0.0152,-0.0258,-0.0273,-0.0282,-0.035,-0.0331,-0.0336,-0.0339,-0.0341,-0.0445,-0.0444,0,0,0,0,0,0,0.0003,-0.0013,-0.0063,-0.0068,-0.0045,-0.0101,-0.0109,-0.0114,-0.0191,-0.0203,-0.0151,-0.0154,-0.0264,-0.0276,-0.0287,-0.0316,-0.0337,-0.0341,-0.0344,-0.0445,-0.0444,-0.0444,0,0,0,0,0,0,0.0005,-0.0001,-0.0059,-0.0042,-0.0052,-0.0101,-0.0106,-0.0115,-0.0132,-0.02,-0.0213,-0.0159,-0.0265,-0.028,-0.0323,-0.0322,-0.0343,-0.0348,-0.0445,-0.0445,-0.0444,-0.0373,0,0,0,0,0,0,0.0007,0.0001,0.0003,-0.0041,-0.0052,-0.0077,-0.0106,-0.0117,-0.0137,-0.0141,-0.021,-0.0223,-0.0267,-0.0315,-0.0328,-0.0329,-0.0352,-0.0445,-0.0445,-0.0444,-0.0376,-0.0371,-0.0366,0,0,0,0,0,0.001,0.0016,0.0004,-0.0003,-0.0048,-0.0077,-0.0085,-0.0123,-0.0136,-0.014,-0.0185,-0.0221,-0.0322,-0.0319,-0.0334,-0.0336,-0.0445,-0.0445,-0.0444,-0.0378,-0.0372,-0.0366,0,0,0,0,0,0,0.0044,0.0009,-0.0005,-0.001,-0.0038,-0.0086,-0.0092,-0.0117,-0.0155,-0.0159,-0.0221,-0.0237,-0.0276,-0.0314,-0.0308,-0.0364,-0.0389,-0.0391,-0.0333,-0.0328,-0.0323,-0.03,-0.0356,0,0,0,0,0,0.0055,0.0051,0.0011,0.0009,-0.0002,-0.0045,-0.0061,-0.0085,-0.0124,-0.0141,-0.0189,-0.0239,-0.0286,-0.0311,-0.0357,-0.0387,-0.0414,-0.0398,-0.0393,-0.0388,-0.038,-0.0418,-0.0416,-0.0443,-0.0443,-0.0443,0,0,0.0067,0.0049,0.0046,0.0016,-0.0008,-0.002,-0.0056,-0.0073,-0.0085,-0.0151,-0.0178,-0.0226,-0.029,-0.0324,-0.0345,-0.0355,-0.0393,-0.0388,-0.0383,-0.0377,-0.0418,-0.0415,-0.0413,-0.0443,-0.0443,-0.0443,0,0,0.0094,0.0076,0.0082,0.0062,0.0032,0.0004,0.0003,-0.0041,-0.0061,-0.0092,-0.0143,-0.0185,-0.0253,-0.0296,-0.0328,-0.0324,-0.0367,-0.034,-0.0297,-0.0335,-0.0333,-0.0331,-0.0349,-0.0349,-0.0335,-0.0335,-0.0335,0,0.0112,0.0111,0.008,0.0078,0.0066,0.002,0.0021,-0.0007,-0.0058,-0.0071,-0.0091,-0.0185,-0.024,-0.0284,-0.0282,-0.0313,-0.0332,-0.0313,-0.0327,-0.0326,-0.0326,-0.0345,-0.0346,-0.0332,-0.0332,-0.0332,-0.0333,0,0.0139,0.0136,0.0139,0.0122,0.0106,0.0101,0.006,0.0043,0.0014,-0.0017,-0.006,-0.013,-0.0183,-0.0209,-0.0246,-0.0271,-0.0285,-0.0316,-0.0337,-0.0319,-0.034,-0.0343,-0.0327,-0.0328,-0.0329,-0.033,0,0,0.0185,0.0164,0.0164,0.0166,0.013,0.0122,0.0107,0.008,0.0077,0.0023,0.0013,-0.0069,-0.01,-0.0137,-0.0192,-0.0224,-0.0239,-0.0259,-0.0263,-0.0268,-0.0304,-0.031,-0.0314,-0.0272,-0.0272,-0.0273,-0.0314,0,0.0217,0.0228,0.0205,0.0215,0.0217,0.0176,0.0166,0.0136,0.0106,0.0086,0.0017,-0.0017,-0.0076,-0.0095,-0.0138,-0.0217,-0.0245,-0.0224,-0.0329,-0.0332,-0.0333,-0.0318,-0.0305,-0.0341,-0.0317,-0.0318,-0.0318,0,0.025,0.0254,0.0269,0.0263,0.0262,0.0257,0.0243,0.023,0.0187,0.0168,0.0124,0.007,0.001,-0.0038,-0.0154,-0.0135,-0.0207,-0.0267,-0.0271,-0.0303,-0.0344,-0.036,-0.0348,-0.0324,-0.0323,-0.0323,-0.0323,0,0.0296,0.0298,0.0315,0.0311,0.0294,0.0297,0.0287,0.0255,0.0263,0.0224,0.0234,0.014,0.0111,0.0001,-0.0122,-0.0138,-0.0239,-0.0283,-0.0355,-0.0356,-0.0379,-0.0381,-0.0357,-0.0356,-0.0356,-0.0356,-0.0356,0,0.0333,0.0347,0.0339,0.0347,0.0377,0.0345,0.0372,0.0352,0.0342,0.0373,0.0284,0.0292,0.0121,0.0041,-0.0088,-0.0219,-0.0217,-0.0338,-0.0368,-0.0353,-0.0352,-0.037,-0.0372,-0.0358,-0.0357,-0.0357,-0.0357,0,0.0373,0.0365,0.039,0.039,0.0398,0.0417,0.044,0.046,0.0446,0.0487,0.0485,0.0409,0.0307,0.014,-0.0032,-0.0159,-0.0298,-0.0345,-0.0303,-0.0327,-0.0398,-0.0395,-0.0434,-0.0435,-0.0435,-0.0436,-0.0436,0,0.039,0.0407,0.0432,0.0457,0.0459,0.0489,0.0514,0.0513,0.0549,0.057,0.0601,0.0521,0.049,0.0235,-0.0018,-0.024,-0.0273,-0.0373,-0.0412,-0.0381,-0.0407,-0.0403,-0.0399,-0.0412,-0.0412,-0.0412,-0.0412,0,0.0432,0.0439,0.0461,0.0515,0.055,0.0601,0.0642,0.0694,0.0712,0.0759,0.081,0.079,0.055,0.0315,-0.0004,-0.016,-0.0343,-0.0382,-0.0366,-0.0391,-0.0363,-0.0387,-0.0384,-0.0413,-0.0413,-0.0413,-0.0413,-0.0413,0.0464,0.0493,0.0525,0.0577,0.0629,0.0707,0.0773,0.0827,0.0915,0.0985,0.0962,0.094,0.066,0.0253,-0.003,-0.0337,-0.033,-0.0441,-0.044,-0.0439,-0.0426,-0.04,-0.0453,-0.0454,-0.0454,-0.0454,-0.0454,0,0.05,0.0537,0.0587,0.0657,0.0722,0.0747,0.0858,0.0914,0.1036,0.1089,0.113,0.0882,0.0625,0.0312,-0.0149,-0.0417,-0.0443,-0.0492,-0.0475,-0.0472,-0.047,-0.0458,-0.0495,-0.0496,-0.0496,-0.0497,0,0,0.0522,0.0573,0.0598,0.0718,0.0783,0.0896,0.0975,0.1051,0.111,0.1149,0.1145,0.1101,0.0728,0.0393,0.0018,-0.0241,-0.029,-0.0287,-0.0227,-0.016,-0.0155,-0.0417,-0.0392,0,0,0,0,0]}],[{"header":{"parameterUnit":"m.s-1","parameterCategory":2,"la1":30.2991,"la2":30.254,"lo1":-89.0895,"lo2":-89.0444,"dy":0.0017,"dx":0.0017,"nx":28,"ny":28,"refTime":"2024-05-08T09:00:00:Z","depth":"4","parameterNumber":2,"parameterNumberName":"U-component_of_CURRENTS"},"data":[0,0,0,0,0,0,0,0,0,0,0,0,0,0,0,0,0,0,0,0,0,0,0,0,0,0,0,0,0,0,0,0,0,0,0,0,0,0,0,0,0,0,0,0,0,0,0,0,0,0,0,0,0,0,0,0,0,0,0.118,0.1181,0,0.1238,0.1239,0.124,0.1296,0.1296,0.1297,0.1298,0.1383,0.1385,0.1386,0,0,0,0,0,0,0,0,0,0,0,0,0,0.1121,0.1122,0.118,0.1181,0.1182,0.1238,0.1239,0.124,0.1295,0.1296,0.1297,0.1298,0.1383,0.1385,0.1386,0,0,0,0,0,0,0,0,0,0,0,0,0,0.1159,0.1122,0.118,0.1217,0.1221,0.1238,0.1239,0.124,0.1295,0.1296,0.1298,0.1299,0.1382,0.1384,0.1387,0.1377,0,0,0.1394,0.1395,0,0,0,0,0,0,0,0,0.1157,0.1161,0.1211,0.1215,0.1219,0.1262,0.125,0.1288,0.1295,0.1266,0.1298,0.1299,0.1345,0.135,0.1357,0.1381,0.1385,0.1394,0.1395,0.1396,0.1397,0,0,0,0,0,0,0,0.1154,0.1159,0.1203,0.1212,0.1217,0.1232,0.1239,0.1257,0.1298,0.1269,0.1273,0.1281,0.1347,0.1355,0.1359,0.1386,0.1394,0.1396,0.1397,0.1398,0.1526,0.1528,0,0,0,0,0,0,0.1147,0.1156,0.1201,0.1204,0.1191,0.1232,0.124,0.1246,0.1297,0.1306,0.128,0.1283,0.135,0.1357,0.1363,0.1461,0.1396,0.1398,0.14,0.1524,0.1527,0.1529,0,0,0,0,0,0,0.1146,0.1151,0.1198,0.1182,0.119,0.1232,0.1239,0.1247,0.1288,0.1305,0.1315,0.1316,0.1351,0.136,0.1418,0.146,0.1399,0.1402,0.1522,0.1525,0.1528,0.1588,0,0,0,0,0,0,0.1144,0.115,0.1164,0.1182,0.1191,0.1234,0.1238,0.1247,0.1289,0.1295,0.1339,0.1347,0.1353,0.1414,0.142,0.1462,0.1403,0.1519,0.1523,0.1527,0.1584,0.1593,0.1601,0,0,0,0,0,0.1141,0.1154,0.1164,0.1171,0.1205,0.1235,0.1242,0.1275,0.1289,0.1315,0.1351,0.1347,0.1443,0.1418,0.1424,0.1468,0.1517,0.1522,0.1526,0.158,0.1591,0.1601,0,0,0,0,0,0,0.1137,0.1161,0.1173,0.1193,0.1224,0.1246,0.1273,0.1291,0.1337,0.1354,0.1369,0.1379,0.1447,0.1449,0.1421,0.1517,0.1481,0.1487,0.1519,0.153,0.1538,0.1529,0.1405,0,0,0,0,0,0.114,0.1159,0.1184,0.1205,0.1223,0.1253,0.1274,0.1298,0.1333,0.1356,0.1388,0.1426,0.1463,0.1491,0.1519,0.1568,0.1573,0.1603,0.1611,0.1618,0.1617,0.1658,0.167,0.1544,0.1544,0.1544,0,0,0.1143,0.116,0.1171,0.1206,0.1233,0.1269,0.1271,0.1314,0.1354,0.1356,0.1432,0.1458,0.1483,0.1544,0.1574,0.1556,0.1663,0.1624,0.163,0.1624,0.1664,0.1676,0.1686,0.1547,0.1546,0.1546,0,0,0.1156,0.1178,0.1201,0.1231,0.1278,0.1299,0.1319,0.1363,0.1399,0.1461,0.1478,0.1529,0.1588,0.1614,0.1632,0.1703,0.1705,0.1724,0.1763,0.1804,0.1814,0.1823,0.1864,0.1876,0.173,0.173,0.173,0,0.1159,0.1193,0.1214,0.125,0.1282,0.1317,0.1358,0.1394,0.1456,0.1487,0.1499,0.1594,0.1618,0.1682,0.1714,0.1722,0.1747,0.172,0.1814,0.1822,0.1831,0.187,0.1883,0.1733,0.1733,0.1733,0.1732,0,0.1189,0.1229,0.125,0.1305,0.1342,0.1385,0.1434,0.1482,0.1528,0.156,0.1643,0.1677,0.1731,0.1754,0.1759,0.1835,0.1837,0.1817,0.1783,0.1847,0.1885,0.1897,0.1738,0.1737,0.1736,0.1735,0,0,0.1163,0.1252,0.1264,0.1301,0.1378,0.1406,0.148,0.1545,0.1593,0.1659,0.1722,0.1792,0.1811,0.1833,0.1851,0.1889,0.1976,0.1887,0.1887,0.192,0.2081,0.1969,0.1971,0.198,0.1982,0.1984,0.2091,0,0.1185,0.1257,0.13,0.1376,0.1418,0.1474,0.1535,0.1599,0.1659,0.1729,0.1774,0.1844,0.1842,0.1881,0.192,0.1964,0.2009,0.195,0.202,0.2022,0.1908,0.1981,0.199,0.2099,0.2102,0.2104,0.2105,0,0.12,0.1249,0.1327,0.1413,0.1437,0.1489,0.1585,0.1644,0.1738,0.1788,0.1857,0.1897,0.1979,0.1959,0.2064,0.2033,0.2066,0.2088,0.2092,0.1969,0.1931,0.2019,0.2126,0.2125,0.2123,0.2122,0.212,0,0.1166,0.1264,0.1327,0.136,0.1463,0.1511,0.157,0.1665,0.1723,0.1833,0.189,0.1974,0.2042,0.2088,0.215,0.2122,0.2253,0.2213,0.2142,0.2135,0.2175,0.2164,0.228,0.228,0.228,0.228,0.2279,0,0.1161,0.1213,0.132,0.1353,0.1425,0.1503,0.1587,0.1655,0.1762,0.1829,0.1922,0.1986,0.2082,0.2162,0.2187,0.221,0.2289,0.216,0.2156,0.2201,0.2192,0.2184,0.2172,0.2284,0.2283,0.2282,0.2281,0,0.1114,0.1189,0.126,0.1374,0.1412,0.1463,0.159,0.1642,0.1759,0.1853,0.1897,0.2034,0.2138,0.2217,0.2312,0.2258,0.2286,0.2273,0.2343,0.2339,0.2132,0.2122,0.2192,0.2188,0.2186,0.2184,0.2182,0,0.1097,0.1132,0.1255,0.1296,0.1354,0.1443,0.15,0.1626,0.1683,0.1862,0.1895,0.205,0.2126,0.2177,0.2262,0.231,0.2282,0.2278,0.2171,0.2134,0.2124,0.2118,0.2111,0.2178,0.2177,0.2177,0.2176,0,0.1056,0.1109,0.1164,0.1249,0.1317,0.1383,0.1477,0.1509,0.1652,0.1774,0.1855,0.1919,0.2038,0.2108,0.2175,0.2195,0.2263,0.225,0.2254,0.2153,0.2119,0.2109,0.2106,0.2167,0.2168,0.2169,0.217,0,0.1022,0.1045,0.1122,0.1187,0.1263,0.1301,0.1361,0.1435,0.1508,0.1693,0.172,0.1881,0.2014,0.2052,0.2109,0.213,0.2086,0.1999,0.2015,0.2026,0.1922,0.1851,0.1824,0,0,0,0,0,0.0984,0.1003,0.1056,0.1118,0.1185,0.1233,0.1335,0.1397,0.1532,0.1546,0.1627,0.1724,0.1816,0.1905,0.1895,0.2045,0.2098,0.2025,0.2006,0.2118,0.2128,0.202,0,0,0,0,0,0,0.0958,0.1004,0.1028,0.1045,0.1073,0.1138,0.1196,0.1289,0.1304,0.1448,0.1512,0.1622,0.1744,0.1809,0.1864,0.1891,0.1844,0.2126,0.2122,0.2112,0.2121,0.2129,0.2023,0,0,0,0,0]},{"header":{"parameterUnit":"m.s-1","parameterCategory":2,"la1":30.2991,"la2":30.254,"lo1":-89.0895,"lo2":-89.0444,"dy":0.0017,"dx":0.0017,"nx":28,"ny":28,"refTime":"2024-05-08T09:00:00:Z","depth":"4","parameterNumber":3,"parameterNumberName":"V-component_of_CURRENTS"},"data":[0,0,0,0,0,0,0,0,0,0,0,0,0,0,0,0,0,0,0,0,0,0,0,0,0,0,0,0,0,0,0,0,0,0,0,0,0,0,0,0,0,0,0,0,0,0,0,0,0,0,0,0,0,0,0,0,0,0,-0.0067,-0.0067,0,-0.0111,-0.0111,-0.0112,-0.014,-0.014,-0.014,-0.0141,-0.0255,-0.0257,-0.026,0,0,0,0,0,0,0,0,0,0,0,0,0,-0.0071,-0.007,-0.0067,-0.0067,-0.0068,-0.011,-0.0111,-0.0112,-0.014,-0.014,-0.014,-0.0141,-0.0254,-0.0257,-0.0261,0,0,0,0,0,0,0,0,0,0,0,0,0,-0.0088,-0.007,-0.0067,-0.0086,-0.0088,-0.011,-0.0111,-0.0112,-0.014,-0.014,-0.014,-0.0141,-0.0252,-0.0257,-0.0261,-0.0287,0,0,-0.0275,-0.0277,0,0,0,0,0,0,0,0,-0.0087,-0.0088,-0.0083,-0.0085,-0.0087,-0.0119,-0.0154,-0.0174,-0.014,-0.0122,-0.0141,-0.0141,-0.0215,-0.0222,-0.0231,-0.0292,-0.0297,-0.0275,-0.0278,-0.028,-0.0281,0,0,0,0,0,0,0,-0.0086,-0.0087,-0.0086,-0.0083,-0.0086,-0.0114,-0.0116,-0.0158,-0.017,-0.0124,-0.0125,-0.0128,-0.0217,-0.0227,-0.0234,-0.0299,-0.0275,-0.0279,-0.0282,-0.0284,-0.0403,-0.0404,0,0,0,0,0,0,-0.0074,-0.0085,-0.0084,-0.0087,-0.0086,-0.0113,-0.0116,-0.011,-0.0168,-0.0176,-0.0128,-0.0129,-0.0219,-0.0229,-0.0239,-0.0278,-0.028,-0.0284,-0.0287,-0.0403,-0.0403,-0.0404,0,0,0,0,0,0,-0.0074,-0.0073,-0.0082,-0.0087,-0.009,-0.0112,-0.0106,-0.011,-0.0125,-0.017,-0.018,-0.0138,-0.022,-0.0232,-0.0282,-0.0282,-0.0286,-0.029,-0.0402,-0.0403,-0.0404,-0.0353,0,0,0,0,0,0,-0.0074,-0.0073,-0.0068,-0.0085,-0.0089,-0.0097,-0.0106,-0.0111,-0.0125,-0.0128,-0.0182,-0.0192,-0.0221,-0.0275,-0.0286,-0.0288,-0.0294,-0.0401,-0.0402,-0.0403,-0.0354,-0.0352,-0.035,0,0,0,0,0,-0.0073,-0.0062,-0.0068,-0.0068,-0.008,-0.0097,-0.0102,-0.012,-0.0126,-0.0133,-0.0171,-0.0191,-0.0288,-0.0279,-0.0292,-0.0296,-0.0401,-0.0402,-0.0403,-0.0355,-0.0352,-0.035,0,0,0,0,0,0,-0.006,-0.0064,-0.0071,-0.0061,-0.0079,-0.0101,-0.0107,-0.0121,-0.0155,-0.0159,-0.0202,-0.0215,-0.0258,-0.0288,-0.0276,-0.0334,-0.0346,-0.035,-0.0305,-0.0303,-0.0301,-0.0277,-0.0297,0,0,0,0,0,-0.0055,-0.0047,-0.0063,-0.0057,-0.0064,-0.0087,-0.0097,-0.011,-0.0139,-0.0153,-0.0191,-0.0233,-0.0272,-0.0296,-0.0336,-0.0371,-0.0389,-0.0382,-0.038,-0.0378,-0.0368,-0.0396,-0.0395,-0.0407,-0.0407,-0.0407,0,0,-0.0047,-0.0049,-0.0045,-0.0054,-0.0068,-0.0077,-0.0094,-0.0106,-0.0115,-0.0162,-0.0191,-0.0232,-0.0281,-0.0317,-0.0338,-0.0342,-0.0385,-0.0379,-0.0377,-0.0368,-0.0397,-0.0396,-0.0394,-0.0408,-0.0408,-0.0408,0,0,-0.0034,-0.0031,-0.0027,-0.0038,-0.0056,-0.0069,-0.0073,-0.01,-0.0114,-0.0147,-0.0181,-0.0219,-0.0282,-0.0311,-0.0335,-0.035,-0.0375,-0.0366,-0.0335,-0.0362,-0.0361,-0.036,-0.0377,-0.0378,-0.0362,-0.0362,-0.0362,0,-0.0027,-0.0019,-0.0031,-0.0034,-0.0037,-0.0064,-0.0065,-0.0084,-0.0125,-0.0134,-0.0151,-0.023,-0.0275,-0.031,-0.0313,-0.0343,-0.0359,-0.0336,-0.0357,-0.0357,-0.0356,-0.0375,-0.0376,-0.036,-0.036,-0.036,-0.0361,0,-0.0017,-0.0011,-0.0009,-0.0016,-0.0025,-0.0028,-0.0051,-0.0066,-0.0085,-0.0105,-0.0145,-0.0202,-0.0243,-0.0267,-0.0295,-0.0317,-0.0329,-0.0351,-0.0356,-0.0351,-0.0372,-0.0374,-0.0357,-0.0357,-0.0358,-0.0359,0,0,-0.0,-0.0,-0.0,0.0006,-0.0012,-0.0015,-0.0026,-0.0042,-0.004,-0.0087,-0.0091,-0.0162,-0.0184,-0.0213,-0.0256,-0.0281,-0.0298,-0.0309,-0.0311,-0.0313,-0.0349,-0.0344,-0.0346,-0.0321,-0.0321,-0.0321,-0.0362,0,0.001,0.002,0.0014,0.0025,0.0031,0.0013,0.0008,-0.0009,-0.0027,-0.004,-0.0092,-0.0118,-0.0167,-0.0181,-0.0215,-0.0279,-0.0303,-0.0284,-0.0365,-0.0367,-0.0352,-0.0349,-0.0322,-0.0364,-0.0365,-0.0365,-0.0366,0,0.0016,0.0028,0.0043,0.0058,0.0059,0.006,0.0065,0.0058,0.0033,0.002,-0.001,-0.005,-0.0097,-0.0135,-0.0229,-0.0214,-0.0273,-0.0321,-0.0324,-0.0336,-0.0366,-0.0373,-0.0371,-0.037,-0.037,-0.037,-0.0369,0,0.0035,0.0049,0.0068,0.0071,0.0078,0.0086,0.0089,0.0076,0.0088,0.0066,0.0075,0.0004,-0.0019,-0.0106,-0.0207,-0.0217,-0.0304,-0.0334,-0.0384,-0.0384,-0.0398,-0.0399,-0.0392,-0.0392,-0.0392,-0.0392,-0.0392,0,0.005,0.0066,0.0082,0.0094,0.0126,0.0117,0.0148,0.0142,0.0146,0.0172,0.0113,0.0116,-0.0011,-0.0078,-0.0181,-0.0284,-0.0287,-0.0371,-0.0393,-0.0377,-0.0375,-0.0399,-0.04,-0.0393,-0.0393,-0.0393,-0.0392,0,0.0063,0.0072,0.01,0.0122,0.0136,0.0158,0.0198,0.022,0.0221,0.0257,0.0257,0.0202,0.0116,-0.0011,-0.015,-0.0237,-0.0346,-0.0382,-0.0341,-0.0361,-0.0414,-0.0412,-0.044,-0.044,-0.044,-0.044,-0.044,0,0.0069,0.0086,0.0128,0.0155,0.0169,0.0207,0.0237,0.0254,0.0287,0.0312,0.0332,0.0271,0.0217,0.0043,-0.0113,-0.0302,-0.0336,-0.0392,-0.0418,-0.0399,-0.0418,-0.0416,-0.0413,-0.044,-0.044,-0.044,-0.044,0,0.0087,0.01,0.0127,0.0184,0.0225,0.0277,0.0324,0.0359,0.0389,0.0396,0.0412,0.0324,0.023,0.0066,-0.0078,-0.0221,-0.0359,-0.0394,-0.0396,-0.042,-0.0401,-0.0419,-0.0416,-0.0441,-0.0441,-0.0441,-0.0441,0,0.0099,0.0121,0.0158,0.0209,0.0268,0.033,0.0355,0.0402,0.0439,0.0469,0.0472,0.0373,0.0309,0.0108,-0.0028,-0.0165,-0.0211,-0.0266,-0.0275,-0.0277,-0.0228,-0.0179,-0.0161,0,0,0,0,0,0.0109,0.0134,0.0182,0.024,0.03,0.0335,0.0407,0.0428,0.0467,0.0495,0.0491,0.0408,0.0226,0.0142,0.0009,-0.0063,-0.026,-0.0228,-0.0333,-0.0443,-0.0442,-0.0414,0,0,0,0,0,0,0.0115,0.0155,0.018,0.0258,0.03,0.0371,0.0419,0.0447,0.0464,0.0486,0.0396,0.0362,0.018,0.0304,0.0003,-0.0041,-0.0128,-0.0313,-0.0316,-0.0443,-0.0442,-0.0442,-0.0413,0,0,0,0,0]}]]